Weather in Shashikman

Russia / Altai Republic     50°47′29″N   86°03′27″E
temp.,
°C
wind,
m/s
gust,
m/s
humid.,
%
clouds,
%
prec.,
mm/h
press.,
hPa
HPBL,
m
6 march, sat
sat601:00−14ssw237961 0.0 103536
04:00−14s227269 0.0 103432
07:00−15sse227084 0.0 103427
10:00−11ese126892 0.0 103191
13:00−5ese125659 0.0 1025359
16:00−3sse13493 0.0 1021487
19:00−8ssw225815 0.0 102226
22:00−11ssw22541 0.0 102425
7 march, sun
sun701:00−12sse125631 0.0 102424
04:00−11se2265100 0.0 102325
07:00−11se1266100 0.0 102423
10:00−8e1168100 0.0 102367
13:00−3ne1260100 0.0 1020417
16:00−1nnw1261100 0.0 1019419
19:00−6ssw1170100 0.0 102222
22:00−7sw2267100 0.0 102525
8 march, mon
mon801:00−8s1167100 0.0 102522
04:00−10sse1269100 0.0 102422
07:00−11se226963 0.0 102422
10:00−7ese226952 0.0 102280
13:00−1ese136333 0.0 1018436
16:00+1s137118 0.0 1015418
19:00−3sw237859 0.0 101826
22:00−5sw2382100 0.0 102140
9 march, tue
tue901:00−6sw2380100 0.0 102346
04:00−7ssw228297 0.0 102533
07:00−9sw228354 0.0 102734
10:00−5s017522 0.0 1028152
13:00−1ssw146011 0.0 1025989
16:000sw145812 0.0 1024970
19:00−4ssw22696 0.0 102425
22:00−7ssw22740 0.0 102527
10 march, wed
wed1001:00−7s117632 0.0 102424
04:00−8sse127958 0.0 102324
07:00−9se128029 0.0 102322
10:00−6ese22750 0.0 102099
13:00−1e226420 0.0 1016332
16:00+1ene226468 0.0 1013259
19:00−2sse126884 0.0 101324
22:00−3sse2265100 0.0 101327